Stanley, ID

10:26 AM MDT on May 27, 2018 (GMT -0600)
Stanley

Weather History for KSNT - June, 2013

Change the Weather History Date:

Sunday, June 30, 2013

  Actual Average Record
Temperature  
Mean Temperature 66 °F 54 °F  
Max Temperature 88 °F 73 °F 88 °F (2013)
Min Temperature 43 °F 35 °F 22 °F (1988)
Degree Days  
Heating Degree Days 0 11  
Month to date heating degree days 369 454  
Since 1 June heating degree days 369 454  
Since 1 July heating degree days 10230 10796  
Cooling Degree Days 1 0  
Month to date cooling degree days 3 0  
Year to date cooling degree days 3 0  
Since 1 June cooling degree days 3 0  
Growing Degree Days 16 (Base 50)    
Moisture  
Dew Point 42 °F    
Average Humidity 53    
Maximum Humidity 93    
Minimum Humidity 12    
Precipitation  
Precipitation 0.00 in 0.04 in 0.24 in (2004)
Month to date precipitation 1.04 1.39  
Year to date precipitation 5.93 9.92  
Sea Level Pressure  
Sea Level Pressure 29.98 in    
Wind  
Wind Speed 2 mph (SSE)    
Max Wind Speed 14 mph    
Max Gust Speed 21 mph    
T = Trace of Precipitation, MM = Missing Value Source: NWS Daily Summary

Daily Weather History Graph

Daily Weather History Graph

Search for Another Location

Airport or City:

Astronomy

Jun. 30, 2013 Rise Set
Actual Time 5:59 AM MDT 9:27 PM MDT
Civil Twilight 5:23 AM MDT 10:03 PM MDT
Nautical Twilight 4:35 AM MDT 10:51 PM MDT
Astronomical Twilight 3:34 AM MDT 11:51 PM MDT
Moon 1:11 AM MDT (6/30) 2:36 PM MDT (6/30)
Length of Visible Light 16h 40m
Length of Day
15h 27m
Last Quarter, 45% of the Moon is Illuminated
Jun 30
Last Quarter
Jul 8
New
Jul 15
First Quarter
Jul 22
Full
Jul 29
Last Quarter

Hourly Weather History & Observations

Time (MDT) Temp. Dew Point Humidity Pressure Visibility Wind Dir Wind Speed Gust Speed Precip Events Conditions
12:51 AM 54.0 °F 45.0 °F 72% 29.96 in - ESE 4.6 mph - N/A   Unknown
1:51 AM 51.1 °F 45.0 °F 80% 29.96 in - Calm Calm - N/A   Unknown
2:51 AM 48.0 °F 44.1 °F 86% 29.97 in - ESE 4.6 mph - N/A   Unknown
3:51 AM 46.9 °F 43.0 °F 86% 29.98 in - Calm Calm - N/A   Unknown
4:51 AM 46.9 °F 44.1 °F 90% 29.98 in - Calm Calm - N/A   Unknown
5:51 AM 44.1 °F 41.0 °F 89% 30.01 in - Calm Calm - N/A   Unknown
6:51 AM 44.1 °F 42.1 °F 93% 30.04 in - Calm Calm - N/A   Unknown
7:51 AM 51.1 °F 46.0 °F 83% 30.06 in - Calm Calm - N/A   Unknown
8:51 AM 57.9 °F 48.0 °F 70% 30.03 in - Calm Calm - N/A   Unknown
9:51 AM 64.9 °F 50.0 °F 58% 30.04 in - North 3.5 mph - N/A   Unknown
10:51 AM 73.0 °F 50.0 °F 44% 30.01 in - North 3.5 mph - N/A   Unknown
11:51 AM 79.0 °F 48.0 °F 34% 29.98 in - Variable 5.8 mph - N/A   Unknown
12:51 PM 82.9 °F 46.0 °F 27% 29.96 in - Variable 5.8 mph 17.3 mph N/A   Unknown
1:51 PM 84.0 °F 36.0 °F 18% 29.97 in - Variable 5.8 mph - N/A   Unknown
2:51 PM 86.0 °F 33.1 °F 15% 29.97 in - West 9.2 mph - N/A   Unknown
3:51 PM 86.0 °F 28.9 °F 13% 29.96 in - SW 5.8 mph - N/A   Unknown
4:51 PM 88.0 °F 33.1 °F 14% 29.94 in - North 3.5 mph - N/A   Unknown
5:51 PM 87.1 °F 28.9 °F 12% 29.94 in - Calm Calm - N/A   Unknown
6:51 PM 87.1 °F 36.0 °F 16% 29.92 in - Calm Calm - N/A   Unknown
7:51 PM 84.9 °F 39.9 °F 20% 29.91 in - Calm Calm - N/A   Unknown
8:51 PM 77.0 °F 43.0 °F 30% 29.93 in - Calm Calm - N/A   Unknown
9:51 PM 62.1 °F 45.0 °F 53% 29.97 in - South 3.5 mph - N/A   Unknown
10:51 PM 59.0 °F 44.1 °F 58% 29.97 in - SSE 4.6 mph - N/A   Unknown
11:51 PM 57.9 °F 43.0 °F 58% 29.96 in - South 3.5 mph - N/A   Unknown